Location: Biltmore Gardens
(41.6070°N, 83.4666°W)
Time: 10:30:29
(UTC+00:00)

Cosmos 2344 - Pass Details

Date: 21 October 2020
Orbit: 1246 x 2997 km, 63.3° (Epoch: 25 November)

Event Time Altitude Azimuth Distance (km) Brightness Sun altitude
Exits shadow 10:13:59 25° 240° (WSW) 2,310 4.4 -19.3°
Maximum altitude 10:18:32 59° 311° (NW) 1,432 3.6 -18.4°
Drops below altitude 10° 10:26:23 10° 31° (NNE) 3,456 6.3 -16.9°
Sets 10:29:32 0° 36° (NE) 4,585 7.0 -16.3°
